Flag for Croatia Weather past 2 weeks in Split, Croatia

41 °F

Passing clouds.

Feels Like: 36 °F
Forecast: 31 / 47 °F
Wind: 7 mph from Northwest

Location: Split / Resnik

Current Time: Nov 25, 2015 at 5:45:48 AM

Latest Report: Nov 25, 2015 at 5:00 AM

Visibility: N/A

Pressure: 29.92 "Hg

Humidity: 76%

Dew point: 34 °F

Location of SplitLocation

Historic Weather in Split — Graph


Split temperature yesterday

Maximum temperature yesterday: 54 °F (at 1:30 PM)
Minimum temperature yesterday: 41 °F (at 11:00 PM)
Average temperature yesterday: 48 °F

Past Weeks' High & Low Weather Summary

High70 °F (Nov 11, 1:30 PM)100% (Nov 13, 7:00 AM)30.39 "Hg (Nov 13, 7:00 AM)
Low37 °F (Nov 23, 4:30 AM)60% (Nov 11, 11:30 AM)29.15 "Hg (Nov 21, 6:00 PM)
Average56 °F80%30.07 "Hg
* Reported Nov 10 4:00 AM — Nov 25 4:00 AM, Split, Weather by CustomWeather, © 2015

Note: Actual official high and low records may vary slightly from our data, if they occured in-between our weather recording intervals... More about our weather records


Split weather history for previous 24 hours

Time TempWeatherWind HumidityBarometerVisibility
4:00 AM
Wed, Nov 25
43 °FClear.3 mph76%29.95 "Hg10 mi
3:30 AM43 °FPassing clouds.7 mph76%29.95 "HgN/A
3:00 AM41 °FPassing clouds.7 mph81%29.98 "HgN/A
2:30 AM41 °FPassing clouds.9 mph81%29.98 "HgN/A
2:00 AM43 °FPassing clouds.7 mph76%30.01 "HgN/A
1:00 AM43 °FPassing clouds.8 mph76%30.01 "HgN/A
12:30 AM43 °FPassing clouds.9 mph76%30.04 "HgN/A
12:00 AM43 °FPassing clouds.7 mph76%30.04 "HgN/A
11:00 PM
Tue, Nov 24
41 °FPassing clouds.8 mph81%30.04 "HgN/A
10:30 PM43 °FPassing clouds.9 mph81%30.07 "HgN/A
10:00 PM43 °FPassing clouds.9 mph76%30.07 "HgN/A
9:30 PM43 °FPassing clouds.9 mph76%30.07 "HgN/A
9:00 PM45 °FPassing clouds.10 mph71%30.07 "HgN/A
8:30 PM45 °FPassing clouds.12 mph76%30.07 "HgN/A
8:00 PM46 °FPassing clouds.10 mph71%30.07 "HgN/A
7:30 PM46 °FPassing clouds.10 mph76%30.09 "HgN/A
7:00 PM48 °FPassing clouds.7 mph76%30.09 "HgN/A
6:30 PM46 °FClear.7 mph82%30.09 "Hg10 mi
6:00 PM46 °FPassing clouds.6 mph76%30.09 "HgN/A
5:30 PM46 °FClear.3 mph76%30.09 "Hg10 mi
5:00 PM48 °FClear.3 mph71%30.09 "Hg10 mi
4:30 PM50 °FPassing clouds.5 mph71%30.09 "HgN/A
4:00 PM52 °FPassing clouds.5 mph67%30.09 "HgN/A
3:30 PM54 °FPassing clouds.6 mph67%30.09 "HgN/A
3:00 PM54 °FPassing clouds.7 mph67%30.12 "HgN/A
2:30 PM54 °FPassing clouds.7 mph72%30.12 "HgN/A
2:00 PM54 °FSunny.7 mph72%30.12 "Hg10 mi
1:30 PM54 °FPassing clouds.8 mph72%30.09 "HgN/A
1:00 PM52 °FSunny.3 mph77%30.12 "Hg10 mi
12:30 PM52 °FSunny.2 mph72%30.12 "Hg10 mi
12:00 PM52 °FPassing clouds.6 mph77%30.12 "HgN/A
11:30 AM52 °FPassing clouds.5 mph77%30.12 "HgN/A
11:00 AM50 °FPassing clouds.6 mph82%30.12 "HgN/A
10:30 AM48 °FPassing clouds.7 mph87%30.15 "HgN/A
10:00 AM48 °FLight rain. Partly sunny.7 mph87%30.15 "HgN/A
9:30 AM46 °FLight rain. Overcast.7 mph87%30.12 "HgN/A
9:00 AM46 °FLight rain. Overcast.6 mph87%30.15 "HgN/A
8:00 AM46 °FLight rain. Overcast.6 mph93%30.12 "HgN/A
7:00 AM48 °FLight rain. More clouds than sun.6 mph87%30.12 "HgN/A
6:30 AM48 °FRain. Partly cloudy.5 mph87%30.12 "HgN/A
6:00 AM48 °FLight rain. Passing clouds.5 mph87%30.12 "HgN/A
5:30 AM48 °FLight rain. Passing clouds.5 mph87%30.09 "HgN/A
5:00 AM48 °FLight rain. Passing clouds.6 mph87%30.09 "HgN/A
Weather by CustomWeather, © 2015

See weather overviewHow to use our weather pages